Location: *
(49.0044°N, 9.5056°E)
Time: 01:57:24
(UTC+00:00)

Cosmos 1371 Rocket - Pass Details

Date: 22 September 2019
Orbit: 753 x 790 km, 74.0° (Epoch: 19 October)

Event Time Altitude Azimuth Distance (km) Brightness Sun altitude
Rises 18:08:21 0° 184° (S) 3,246 7.2 -8.6°
Reaches altitude 10° 18:10:47 10° 178° (S) 2,328 6.4 -9.0°
Maximum altitude 18:15:51 48° 105° (ESE) 1,017 4.2 -9.8°
Drops below altitude 10° 18:21:00 10° 33° (NNE) 2,361 6.3 -10.6°
Sets 18:23:28 0° 28° (NNE) 3,297 7.1 -11.0°
